Location: St. Louis
(38.6270°N, 90.1994°W)
Time: 11:14:43
(UTC-06:00)

Tiros 1 despin weight - Pass Details

Date: 03 December 2021
Orbit: 592 x 641 km, 48.2° (Epoch: 25 January)

Event Time Altitude Azimuth Distance (km) Brightness Sun altitude
Rises 17:17:30 0° 302° (WNW) 2,824 ? -7.5°
Reaches altitude 10° 17:20:00 10° 313° (NW) 1,922 ? -8.0°
Maximum altitude 17:23:54 30° 16° (NNE) 1,066 ? -8.7°
Enters shadow 17:27:26 12° 76° (ENE) 1,796 ? -9.3°
